Flag for Brazil Weather past 2 weeks in Itumbiara, Goiás, Brazil

Now
73 °F

Sunny.


Feels Like: 76 °F
Forecast: N/A
Wind: 9 mph from Northeast

Location: Uberlandia Airport

Current Time: Jul 6, 2015 at 5:57:04 PM

Latest Report: Jul 6, 2015 at 5:00 PM


Visibility: 10 mi

Pressure: 30.12 "Hg

Humidity: 65%

Dew point: 61 °F

Location of ItumbiaraLocation

Historic Weather in Itumbiara — Graph

°F

Itumbiara temperature yesterday

Maximum temperature yesterday: 77 °F (at 1:00 PM)
Minimum temperature yesterday: 59 °F (at 7:00 AM)
Average temperature yesterday: 68 °F

Past Weeks' High & Low Weather Summary

 TemperatureHumidityPressure
High79 °F (Jul 3, 2:00 PM)94% (Jul 5, 6:00 AM)30.42 "Hg (Jul 5, 6:00 AM)
Low52 °F (Jun 28, 7:00 AM)36% (Jun 24, 2:00 PM)30.04 "Hg (Jul 3, 4:00 AM)
Average66 °F66%30.22 "Hg
* Reported Jun 21 4:00 PM — Jul 6 4:00 PM, Itumbiara, Weather by CustomWeather, © 2015

Note: Actual official high and low records may vary slightly from our data, if they occured in-between our weather recording intervals... More about our weather records

Advertising

Itumbiara weather history for previous 24 hours

 ConditionsComfort  
Time TempWeatherWind HumidityBarometerVisibility
4:00 PM
Mon, Jul 6
75 °FSunny.8 mph57%30.12 "Hg10 mi
3:00 PM75 °FSunny.13 mph61%30.12 "Hg10 mi
2:00 PM75 °FSunny.10 mph61%30.12 "Hg10 mi
1:00 PM72 °FSunny.12 mph69%30.15 "Hg10 mi
12:00 PM70 °FSunny.12 mph73%30.18 "Hg10 mi
11:00 AM70 °FSunny.14 mph73%30.18 "Hg10 mi
10:00 AM68 °FSunny.14 mph78%30.18 "Hg10 mi
9:00 AM66 °FSunny.13 mph78%30.18 "Hg10 mi
8:00 AM64 °FSunny.15 mph83%30.15 "Hg10 mi
7:00 AM63 °FSunny.13 mph88%30.12 "Hg10 mi
6:00 AM63 °FClear.13 mph88%30.09 "Hg10 mi
5:00 AM64 °FClear.12 mph83%30.09 "Hg10 mi
4:00 AM64 °FClear.9 mph83%30.07 "Hg10 mi
3:00 AM64 °FClear.9 mph83%30.09 "Hg10 mi
2:00 AM66 °FClear.8 mph78%30.09 "Hg10 mi
1:00 AM66 °FClear.10 mph83%30.09 "Hg10 mi
12:00 AM66 °FClear.10 mph78%30.12 "Hg10 mi
11:00 PM
Sun, Jul 5
66 °FClear.12 mph83%30.12 "Hg10 mi
10:00 PM66 °FClear.10 mph78%30.12 "Hg10 mi
9:00 PM66 °FClear.9 mph83%30.12 "Hg10 mi
8:00 PM66 °FClear.8 mph83%30.09 "Hg10 mi
7:00 PM68 °FClear.9 mph78%30.09 "Hg10 mi
6:00 PM72 °FClear.10 mph69%30.09 "Hg10 mi
5:00 PM77 °FPassing clouds.6 mph57%30.09 "HgN/A
Weather by CustomWeather, © 2015

See weather overviewHow to use our weather pages